Regional Weather Roundup
Issued by NWS Northern Indiana

Home | Current Version | Previous Version | Graphics & Text | Print | Product List | Glossary On
Versions: 1 2 3 4 5 6 7 8 9 10 11 12 13 14 15 16 17 18 19 20 21 22 23 24 25 26 27 28 29 30 31 32 33 34 35 36 37 38 39 40 41 42 43 44 45 46 47 48 49 50
978
ASUS43 KIWX 132310
RWRIWX

KIWX WEATHER ROUNDUP
NATIONAL WEATHER SERVICE NORTHERN INDIANA
600 PM EST SAT FEB 13 2016

NOTE: "FAIR" INDICATES FEW OR NO CLOUDS BELOW 12,000 FEET WITH NO
SIGNIFICANT WEATHER AND/OR OBSTRUCTIONS TO VISIBILITY.

* THESE STATIONS ARE NOT UNDER NWS QUALITY CONTROL. THEY ALSO MAY NOT
  REPORT WEATHER SUCH AS PRECIPITATION OR FOG.

INZ001>027-140000-
NORTHERN INDIANA

CITY           SKY/WX    TMP DP  RH WIND       PRES   REMARKS
GARY*          PTCLDY    19 -11  25 CALM      30.53F
VALPARAISO     CLEAR     13  -2  51 N3        30.51F
MICHIGAN CITY* CLEAR     12   1  62 NW3       30.52F
LAPORTE*       CLEAR     14   1  57 NW3       30.52S
KNOX*          CLEAR     12   0  57 N7        30.52F WCI   2
SOUTH BEND     LGT SNOW  12   5  73 W9        30.51S WCI   0
ELKHART*       LGT SNOW  12   7  79 MISG      30.50S
GOSHEN         CLOUDY    12   5  73 W10       30.50R WCI  -1
MONTICELLO*    CLEAR     15  -6  38 CALM      30.52S
LOGANSPORT*    CLEAR     16  -6  38 NW5       30.52F WCI   9
ROCHESTER*     CLEAR     14  -6  41 N7        30.51F WCI   4
WARSAW*        CLEAR     12   3  67 W12       30.50S WCI  -2
ANGOLA*        MOCLDY    12   5  73 NW10      30.44S WCI  -1
FORT WAYNE     PTCLDY    13   2  61 W10       30.50S WCI   0
HUNTINGTON*    CLEAR     12  -4  48 NW7       30.50F WCI   2
PERU/GRISSOM   CLEAR     14  -2  47 NW6       30.49S WCI   5
MARION*        CLEAR     13 -10  35 NW5       30.51S WCI   6

$$
INZ028>050-140000-
CENTRAL INDIANA

CITY           SKY/WX    TMP DP  RH WIND       PRES   REMARKS
LAFAYETTE      PTCLDY    16  -3  43 NW6       30.52F WCI   7
KOKOMO*        CLEAR     16  -2  45 NW9       30.51S WCI   4
MUNCIE*        PTCLDY    14   0  53 NW9       30.49S WCI   2
INDIANAPOLIS   MOCLDY    17  -4  39 NW9       30.50S WCI   6

$$
MIZ043>046-050>051-056>058-064>065-071>073-077>080-140000-
SOUTHWEST LOWER MICHIGAN

CITY           SKY/WX    TMP DP  RH WIND       PRES   REMARKS
BATTLE CREEK   CLOUDY    13   2  61 NW13      30.45R WCI  -2
BENTON HARBOR  CLOUDY    15   5  64 NW8       30.51S WCI   4
COLDWATER*     CLOUDY    14   3  61 NW12      30.45R WCI   1
HILLSDALE*     FLURRIES  13   3  63 NW10G17   30.41R WCI   0
HOLLAND        LGT SNOW  15   6  67 NW9       30.48F WCI   3
GRAND RAPIDS   MOCLDY    14   3  61 NW12      30.46R WCI   0
KALAMAZOO      LGT SNOW  14   4  64 NW9       30.47R WCI   2
STURGIS*       CLOUDY    13   3  64 NW8       30.45S WCI   2
THREE RIVERS*  MOCLDY    13   4  67 NW7       30.48R WCI   3

$$
OHZ001>008-015>018-024>025-140000-
NORTHWEST OHIO

CITY           SKY/WX    TMP DP  RH WIND       PRES   REMARKS
DEFIANCE       FLURRIES  16   5  62 W6        30.48R WCI   7
FINDLAY        LGT SNOW  15   8  73 W13       30.45S WCI   1
TOLEDO EXPRESS CLOUDY    15   6  67 W8        30.46R WCI   4
TOLEDO METCALF LGT SNOW  15   7  70 NW10      30.47R WCI   2
LIMA           CLOUDY    14   4  64 W16       30.46R WCI  -2

$$
AND FOR LAKE MICHIGAN COASTAL AND OPEN LAKE BUOY OBSERVATIONS

STATION/POSITION TEMP    WIND        PRES    VSBY  WAVE
                 AIR SEA DIR/SP/G                  HT/PER
                 (F)     (DEG/KT/KT) (MB)    (MI)  (FT/S)
CALUMET HARBOR    17                 1032.9F
MICHIGAN CITY     15     270/ 10/ 12   N/A
BURNS HARBOR      15      CALM  /  7 1034.2F
SAINT JOSEPH      16     290/  9/ 12 1033.9S

$$
&&




USA.gov is the U.S. government's official web portal to all federal, state and local government web resources and services.